FDB94F OMDB-OOMS

Flight info

Callsign FDB94F
Flight time 0h 38m
Altitude 25000
Route ANVIX L223 TARDI DCT MUSUK T511 MCT
Aircraft B738/M-SDE2E3FGHIRWXY/LB1

Departure

Time 2026-05-04 04:16
Airport Dubai International Airport (OMDB)

Arrival

Time 2026-05-04 04:54
Airport Muscat International Airport (OOMS)
Time Latitude Longitude Altitude Speed Heading
2026-05-04 03:27 25.26536 55.35628 70 ft 0 kts 31°
2026-05-04 04:02 25.26532 55.35627 69 ft 2 kts 31°
2026-05-04 04:02 25.26519 55.35618 69 ft 2 kts 31°
2026-05-04 04:02 25.26507 55.35609 69 ft 2 kts 31°
2026-05-04 04:03 25.26494 55.35600 69 ft 2 kts 31°
2026-05-04 04:03 25.26481 55.35592 69 ft 2 kts 37°
2026-05-04 04:03 25.26472 55.35578 69 ft 2 kts 75°
2026-05-04 04:03 25.26472 55.35562 69 ft 2 kts 106°
2026-05-04 04:04 25.26475 55.35553 69 ft 1 kts 126°
2026-05-04 04:04 25.26478 55.35548 69 ft 0 kts 122°
2026-05-04 04:08 25.26472 55.35559 69 ft 5 kts 122°
2026-05-04 04:08 25.26437 55.35623 69 ft 12 kts 120°
2026-05-04 04:08 25.26393 55.35704 69 ft 12 kts 121°
2026-05-04 04:09 25.26346 55.35792 69 ft 14 kts 120°
2026-05-04 04:09 25.26291 55.35892 69 ft 16 kts 121°
2026-05-04 04:09 25.26233 55.35995 69 ft 15 kts 121°
2026-05-04 04:09 25.26172 55.36105 70 ft 20 kts 121°
2026-05-04 04:10 25.26086 55.36259 70 ft 27 kts 122°
2026-05-04 04:10 25.25984 55.36445 70 ft 27 kts 121°
2026-05-04 04:10 25.25907 55.36575 70 ft 11 kts 140°
2026-05-04 04:10 25.25834 55.36578 70 ft 10 kts 187°
2026-05-04 04:11 25.25776 55.36644 70 ft 15 kts 118°
2026-05-04 04:11 25.25710 55.36761 70 ft 20 kts 123°
2026-05-04 04:11 25.25632 55.36901 70 ft 21 kts 121°
2026-05-04 04:11 25.25553 55.37046 70 ft 23 kts 120°
2026-05-04 04:12 25.25460 55.37208 70 ft 26 kts 123°
2026-05-04 04:12 25.25364 55.37384 70 ft 26 kts 120°
2026-05-04 04:12 25.25271 55.37553 70 ft 25 kts 121°
2026-05-04 04:12 25.25182 55.37713 70 ft 23 kts 120°
2026-05-04 04:13 25.25096 55.37867 70 ft 22 kts 123°
2026-05-04 04:13 25.25015 55.38013 70 ft 21 kts 120°
2026-05-04 04:13 25.24957 55.38110 70 ft 7 kts 148°
2026-05-04 04:13 25.24910 55.38114 70 ft 7 kts 198°
2026-05-04 04:14 25.24861 55.38083 70 ft 8 kts 210°
2026-05-04 04:14 25.24815 55.38052 70 ft 7 kts 219°
2026-05-04 04:14 25.24808 55.38042 70 ft 0 kts 259°
2026-05-04 04:14 25.24811 55.38029 70 ft 4 kts 279°
2026-05-04 04:15 25.24833 55.37978 70 ft 10 kts 301°
2026-05-04 04:15 25.24898 55.37863 70 ft 34 kts 301°
2026-05-04 04:15 25.25155 55.37402 70 ft 104 kts 301°
2026-05-04 04:15 25.25639 55.36517 70 ft 161 kts 302°
2026-05-04 04:16 25.26271 55.35398 541 ft 171 kts 300°
2026-05-04 04:16 25.26881 55.34359 1346 ft 161 kts 301°
2026-05-04 04:16 25.27482 55.33271 1858 ft 170 kts 300°
2026-05-04 04:16 25.28106 55.32136 2336 ft 181 kts 300°
2026-05-04 04:17 25.28753 55.30938 2892 ft 187 kts 298°
2026-05-04 04:17 25.29208 55.29614 3523 ft 189 kts 278°
2026-05-04 04:17 25.29031 55.28143 4013 ft 203 kts 252°
2026-05-04 04:17 25.28399 55.26679 4420 ft 221 kts 247°
2026-05-04 04:18 25.27708 55.25127 4989 ft 231 kts 248°
2026-05-04 04:18 25.27028 55.23542 5788 ft 230 kts 248°
2026-05-04 04:18 25.26356 55.21956 6526 ft 232 kts 248°
2026-05-04 04:18 25.25676 55.20348 7249 ft 234 kts 248°
2026-05-04 04:19 25.24914 55.18731 7843 ft 245 kts 240°
2026-05-04 04:19 25.23647 55.17373 8276 ft 269 kts 214°
2026-05-04 04:19 25.21805 55.16756 8722 ft 293 kts 187°
2026-05-04 04:19 25.19721 55.16849 9367 ft 304 kts 173°
2026-05-04 04:20 25.17761 55.17723 10076 ft 314 kts 147°
2026-05-04 04:20 25.16187 55.19492 10571 ft 331 kts 123°
2026-05-04 04:20 25.15214 55.21818 11027 ft 344 kts 108°
2026-05-04 04:20 25.14486 55.24391 11439 ft 359 kts 105°
2026-05-04 04:21 25.13663 55.27052 11848 ft 375 kts 111°
2026-05-04 04:21 25.12581 55.29678 12539 ft 379 kts 115°
2026-05-04 04:21 25.11358 55.32269 13288 ft 382 kts 116°
2026-05-04 04:21 25.10105 55.34863 13933 ft 388 kts 115°
2026-05-04 04:22 25.08912 55.37542 14642 ft 392 kts 113°
2026-05-04 04:22 25.07777 55.40250 15333 ft 397 kts 112°
2026-05-04 04:22 25.06639 55.43058 16022 ft 402 kts 111°
2026-05-04 04:22 25.05545 55.45886 16681 ft 407 kts 110°
2026-05-04 04:23 25.04451 55.48784 17352 ft 411 kts 110°
2026-05-04 04:23 25.03358 55.51690 18041 ft 415 kts 110°
2026-05-04 04:23 25.02237 55.54614 18742 ft 418 kts 111°
2026-05-04 04:23 25.00969 55.57498 19405 ft 422 kts 116°
2026-05-04 04:24 24.99516 55.60353 20056 ft 427 kts 118°
2026-05-04 04:24 24.97994 55.63152 20712 ft 430 kts 119°
2026-05-04 04:24 24.96435 55.65955 21346 ft 433 kts 120°
2026-05-04 04:24 24.94857 55.68784 21982 ft 436 kts 120°
2026-05-04 04:25 24.93211 55.71606 22642 ft 438 kts 123°
2026-05-04 04:25 24.91459 55.74348 23106 ft 445 kts 125°
2026-05-04 04:25 24.89600 55.77116 23598 ft 450 kts 126°
2026-05-04 04:25 24.87734 55.79850 24100 ft 454 kts 127°
2026-05-04 04:26 24.85807 55.82668 24441 ft 461 kts 127°
2026-05-04 04:26 24.83886 55.85489 24678 ft 462 kts 127°
2026-05-04 04:26 24.81962 55.88306 24863 ft 464 kts 127°
2026-05-04 04:26 24.80014 55.91141 24910 ft 466 kts 128°
2026-05-04 04:27 24.77942 55.93870 24925 ft 465 kts 132°
2026-05-04 04:27 24.75724 55.96430 24940 ft 464 kts 135°
2026-05-04 04:27 24.73409 55.98902 24950 ft 464 kts 137°
2026-05-04 04:27 24.71049 56.01326 24952 ft 459 kts 137°
2026-05-04 04:28 24.68730 56.03671 24947 ft 453 kts 138°
2026-05-04 04:28 24.66378 56.06041 24940 ft 454 kts 138°
2026-05-04 04:28 24.64063 56.08379 24939 ft 454 kts 138°
2026-05-04 04:28 24.61747 56.10728 24940 ft 454 kts 137°
2026-05-04 04:29 24.59433 56.13102 24944 ft 453 kts 136°
2026-05-04 04:29 24.57255 56.15588 24952 ft 455 kts 131°
2026-05-04 04:29 24.55285 56.18264 24963 ft 454 kts 127°
2026-05-04 04:29 24.53436 56.21085 24975 ft 454 kts 124°
2026-05-04 04:30 24.51660 56.23972 24988 ft 454 kts 123°
2026-05-04 04:30 24.49934 56.26856 24998 ft 453 kts 122°
2026-05-04 04:30 24.48222 56.29734 24987 ft 454 kts 122°
2026-05-04 04:30 24.46494 56.32634 24969 ft 454 kts 123°
2026-05-04 04:31 24.44767 56.35510 24942 ft 454 kts 123°
2026-05-04 04:31 24.43029 56.38387 24920 ft 453 kts 123°
2026-05-04 04:31 24.41276 56.41272 24895 ft 453 kts 123°
2026-05-04 04:31 24.39519 56.44152 24871 ft 454 kts 123°
2026-05-04 04:32 24.37766 56.47017 24852 ft 454 kts 123°
2026-05-04 04:32 24.36003 56.49890 24833 ft 454 kts 123°
2026-05-04 04:32 24.34251 56.52741 24820 ft 453 kts 123°
2026-05-04 04:32 24.32499 56.55590 24817 ft 453 kts 123°
2026-05-04 04:33 24.30728 56.58466 24810 ft 453 kts 123°
2026-05-04 04:33 24.28973 56.61316 24809 ft 453 kts 123°
2026-05-04 04:33 24.27198 56.64194 24805 ft 453 kts 123°
2026-05-04 04:33 24.25442 56.67041 24805 ft 452 kts 124°
2026-05-04 04:34 24.23683 56.69891 24808 ft 452 kts 124°
2026-05-04 04:34 24.21929 56.72731 24808 ft 452 kts 124°
2026-05-04 04:34 24.20173 56.75574 24805 ft 452 kts 124°
2026-05-04 04:34 24.18396 56.78448 24804 ft 453 kts 124°
2026-05-04 04:35 24.16649 56.81273 24803 ft 453 kts 123°
2026-05-04 04:35 24.14886 56.84122 24799 ft 452 kts 124°
2026-05-04 04:35 24.13117 56.86979 24798 ft 452 kts 124°
2026-05-04 04:35 24.11351 56.89828 24796 ft 452 kts 123°
2026-05-04 04:36 24.09602 56.92649 24792 ft 451 kts 123°
2026-05-04 04:36 24.07824 56.95515 24779 ft 451 kts 123°
2026-05-04 04:36 24.06081 56.98324 24600 ft 442 kts 124°
2026-05-04 04:36 24.04382 57.01058 24361 ft 431 kts 124°
2026-05-04 04:37 23.99431 57.09025 23633 ft 422 kts 123°
2026-05-04 04:37 23.97793 57.11657 23329 ft 417 kts 123°
2026-05-04 04:38 23.96166 57.14270 22866 ft 414 kts 123°
2026-05-04 04:38 23.94542 57.16878 22308 ft 412 kts 123°
2026-05-04 04:38 23.92956 57.19424 21739 ft 411 kts 123°
2026-05-04 04:38 23.91347 57.22005 21162 ft 410 kts 122°
2026-05-04 04:39 23.89748 57.24569 20579 ft 409 kts 122°
2026-05-04 04:39 23.88135 57.27152 20017 ft 408 kts 122°
2026-05-04 04:39 23.86538 57.29709 19415 ft 407 kts 122°
2026-05-04 04:39 23.84949 57.32253 18866 ft 405 kts 122°
2026-05-04 04:40 23.83486 57.34845 18276 ft 403 kts 115°
2026-05-04 04:40 23.82478 57.37639 17677 ft 397 kts 101°
2026-05-04 04:40 23.82081 57.40583 17118 ft 390 kts 88°
2026-05-04 04:40 23.82164 57.43509 16580 ft 384 kts 80°
2026-05-04 04:41 23.82543 57.46392 16035 ft 380 kts 76°
2026-05-04 04:41 23.83063 57.49162 15489 ft 378 kts 73°
2026-05-04 04:41 23.83654 57.51964 14925 ft 376 kts 73°
2026-05-04 04:41 23.84246 57.54730 14409 ft 374 kts 73°
2026-05-04 04:42 23.84824 57.57486 13889 ft 370 kts 74°
2026-05-04 04:42 23.85368 57.60170 13453 ft 363 kts 75°
2026-05-04 04:42 23.85900 57.62851 12956 ft 360 kts 75°
2026-05-04 04:42 23.86422 57.65521 12454 ft 359 kts 76°
2026-05-04 04:43 23.86935 57.68159 11876 ft 359 kts 76°
2026-05-04 04:43 23.87373 57.70805 11428 ft 352 kts 81°
2026-05-04 04:43 23.87380 57.73453 11253 ft 342 kts 97°
2026-05-04 04:43 23.86577 57.75838 10959 ft 339 kts 121°
2026-05-04 04:44 23.84941 57.77697 10469 ft 339 kts 144°
2026-05-04 04:44 23.82990 57.79105 10062 ft 333 kts 148°
2026-05-04 04:44 23.81068 57.80419 9825 ft 320 kts 148°
2026-05-04 04:44 23.79199 57.81712 9427 ft 314 kts 147°
2026-05-04 04:45 23.77375 57.82996 9001 ft 309 kts 147°
2026-05-04 04:45 23.75606 57.84259 8638 ft 303 kts 147°
2026-05-04 04:45 23.73841 57.85531 8249 ft 298 kts 147°
2026-05-04 04:47 23.63326 57.90595 6628 ft 270 kts 189°
2026-05-04 04:47 23.61476 57.90340 6335 ft 267 kts 189°
2026-05-04 04:47 23.59618 57.90420 6057 ft 267 kts 163°
2026-05-04 04:47 23.58128 57.91517 6011 ft 260 kts 126°
2026-05-04 04:48 23.57302 57.93235 5767 ft 256 kts 108°
2026-05-04 04:49 23.57027 58.00691 4610 ft 251 kts 80°
2026-05-04 04:49 23.57198 58.02558 4297 ft 249 kts 81°
2026-05-04 04:49 23.57346 58.04441 3961 ft 246 kts 82°
2026-05-04 04:49 23.57489 58.06263 3674 ft 241 kts 81°
2026-05-04 04:50 23.57640 58.08069 3327 ft 239 kts 81°
2026-05-04 04:50 23.57787 58.09854 3018 ft 228 kts 81°
2026-05-04 04:50 23.57920 58.11502 2742 ft 212 kts 81°
2026-05-04 04:50 23.58047 58.13053 2461 ft 199 kts 80°
2026-05-04 04:51 23.58165 58.14504 2227 ft 185 kts 80°
2026-05-04 04:51 23.58274 58.15848 1972 ft 172 kts 80°
2026-05-04 04:51 23.58377 58.17096 1770 ft 163 kts 80°
2026-05-04 04:51 23.58479 58.18325 1565 ft 162 kts 81°
2026-05-04 04:52 23.58581 58.19552 1359 ft 161 kts 81°
2026-05-04 04:52 23.58680 58.20765 1153 ft 160 kts 82°
2026-05-04 04:52 23.58777 58.21963 950 ft 160 kts 82°
2026-05-04 04:52 23.58877 58.23158 762 ft 159 kts 83°
2026-05-04 04:53 23.58970 58.24367 554 ft 158 kts 83°
2026-05-04 04:53 23.59063 58.25542 359 ft 155 kts 84°
2026-05-04 04:53 23.59170 58.26712 156 ft 154 kts 84°
2026-05-04 04:53 23.59260 58.27856 42 ft 146 kts 85°
2026-05-04 04:54 23.59336 58.28782 41 ft 97 kts 85°
2026-05-04 04:54 23.59378 58.29316 41 ft 44 kts 85°
2026-05-04 04:54 23.59413 58.29581 41 ft 22 kts 71°
2026-05-04 04:54 23.59462 58.29703 40 ft 16 kts 58°
2026-05-04 04:55 23.59512 58.29783 40 ft 9 kts 53°
2026-05-04 04:55 23.59553 58.29836 40 ft 8 kts 32°
2026-05-04 04:55 23.59601 58.29818 40 ft 7 kts 301°
2026-05-04 04:55 23.59617 58.29754 40 ft 11 kts 281°
2026-05-04 04:56 23.59613 58.29652 40 ft 16 kts 264°
2026-05-04 04:56 23.59602 58.29511 40 ft 21 kts 264°
2026-05-04 04:56 23.59589 58.29332 40 ft 26 kts 265°
2026-05-04 04:56 23.59572 58.29129 40 ft 26 kts 265°
2026-05-04 04:57 23.59556 58.28935 40 ft 25 kts 265°
2026-05-04 04:57 23.59541 58.28742 40 ft 25 kts 265°
2026-05-04 04:57 23.59526 58.28553 40 ft 24 kts 265°
2026-05-04 04:57 23.59511 58.28363 41 ft 25 kts 265°
2026-05-04 04:58 23.59496 58.28178 40 ft 24 kts 265°
2026-05-04 04:58 23.59482 58.28000 41 ft 22 kts 265°
2026-05-04 04:58 23.59469 58.27832 41 ft 21 kts 264°
2026-05-04 04:58 23.59459 58.27721 41 ft 21 kts 264°
2026-05-04 04:59 23.59446 58.27565 41 ft 21 kts 265°
2026-05-04 04:59 23.59447 58.27409 41 ft 17 kts 301°
2026-05-04 04:59 23.59567 58.27377 41 ft 20 kts 354°
2026-05-04 04:59 23.59727 58.27361 41 ft 25 kts 354°
2026-05-04 05:00 23.59912 58.27344 40 ft 25 kts 356°
2026-05-04 05:00 23.60085 58.27328 40 ft 24 kts 355°
2026-05-04 05:00 23.60404 58.27297 40 ft 15 kts
2026-05-04 05:01 23.60458 58.27380 40 ft 14 kts 85°
2026-05-04 05:01 23.60469 58.27508 40 ft 19 kts 84°
2026-05-04 05:01 23.60430 58.27651 40 ft 19 kts 130°
2026-05-04 05:01 23.60341 58.27768 40 ft 20 kts 130°
2026-05-04 05:02 23.60252 58.27880 40 ft 19 kts 131°
2026-05-04 05:02 23.60236 58.27988 40 ft 15 kts 83°
2026-05-04 05:02 23.60246 58.28109 40 ft 14 kts 85°
2026-05-04 05:02 23.60238 58.28152 40 ft 4 kts 150°
2026-05-04 05:03 23.60199 58.28159 40 ft 5 kts 176°
2026-05-04 05:03 23.60158 58.28162 40 ft 5 kts 175°
2026-05-04 05:04 23.60139 58.28164 40 ft 0 kts 175°